Rbgn^[z[y[W
メイン
   新天体発見情報
     Comet P/2010 OE101 = 2021 LJ31 (WISE)
投稿するにはまず登録を

フラット表示 前のトピック | 次のトピック
投稿者 スレッド
佐藤裕久
投稿日時: 2023-5-2 12:17
モデレータ
登録日: 2005-6-12
居住地: 日本
投稿: 2701
オンライン
Comet P/2010 OE101 = 2021 LJ31 (WISE)

2010年7月25-26日、Wide-field Infrared Survey Explorer (WISE:広域赤外線探査衛星;IAUC 
9118参照)で得た赤外線画像から小惑星状天体が発見され、MPEC 2010-P11に発表された。
周期5.6年の軌道で、2021年6月6日、Mt Lemmonで独立して21.0-21.4等で再発見した後、再び
近日点付近でCCD観測者によって出現が確認された。小惑星センターによって2021 LJ31と仮
符号がつけられた(MPS 1446951参照)。
佐藤英貴氏(東京都文京区、2021年9月10.44日, 60-秒露出8枚のスタック, 0.43-m f/6.8 アス
トログラフ, Mayhill近郊, ニューメキシコ州, 米国, 遠隔操作:強く集光した10"のコマとp.a. 
225°に向かって15"の尾が見える。6".3の円形範囲で測定した光度は17.4等であった。さらに
2021年10月2.4日, 同じ器械の60-秒露出10枚のスタックでは、強く集光した10"のコマとp.a. 
220°に向かって15"の尾が見える。5".7の円形範囲で測定した光度は16.5等であった)や吉本
勝巳氏 (山口県熊毛郡平生町;2021年10月5.24日, Mayhill近郊の0.43-m f/6.8 反射望遠鏡で、
全光度16.2等の非常に集光した21" のコマとp.a.240°に尾が見える)らCCD観測者によって
彗星状と観測された。

彗星機能は次のとおり、

OC   Date        Reporter           Coma    Tail    PA          Exposures
H06  2010-10-07  H. Sato            8"                            8x60s
H06  2021-09-10  H. Sato           10"       15"    225           8x60s
A71  2021-09-25  M. Jaeger         12"       60"    237          60x50s
215  2021-09-30  W. Hasubick        5"       36"     65
H06  2021-10-02  H. Sato           10"       15"    220          10x45s
G00  2021-10-04  M. Jaeger         23"       60"    247          53x50s
F51  2022-12-15  R. Weryk           3"        5"    250-300       4x45s

発見位置は次のとおり、

     2010 UT             R.A. (2000) Decl.        Mag.
     July 25.02012    1 42 55.78   +25 00 49.2     19
          25.15242    1 43 24.68   +25 01 24.4
          25.28472    1 43 53.54   +25 01 59.5
          25.41703    1 44 22.44   +25 02 33.7
          25.54933    1 44 51.38   +25 03 07.2
          25.68163    1 45 20.32   +25 03 40.3
          25.81394    1 45 49.27   +25 04 13.1
          25.94624    1 46 18.22   +25 04 45.1
          26.07855    1 46 47.19   +25 05 16.8
          26.21085    1 47 16.16   +25 05 48.0

MPCの楕円軌道要素、位置推算表は次のとおり、

Orbital elements:
    P/2010 OE101 (WISE)                                                         
Epoch 2023 Feb. 25.0 TT = JDT 2460000.5                                         
T 2021 Oct. 4.92681 TT                                  Rudenko                 
q   1.3498705            (2000.0)            P               Q                  
n   0.17695669     Peri.  174.79495     +0.98606630     -0.14671026             
a   3.1421341      Node   194.37524     +0.13894630     +0.98556781             
e   0.5703969      Incl.   18.41246     +0.09147229     +0.08445232             
P   5.57                                                                        
From 747 observations 2010 July 25-2022 Jan. 28, mean residual 0".5.            
                                                                                
Ephemeris:
Date    TT    R. A. (2000) Decl.     Delta      r    Elong.  Phase   m1
2023 03 29    09 50 08.8 -01 27 46   3.2988  4.1178   140.4     8.9  27.2
...
2023 04 13    09 46 06.1 +00 02 16   3.5104  4.1700   125.2    11.3  27.4
...
2023 04 21    09 45 27.3 +00 42 22   3.6394  4.1970   117.4    12.3  27.5
...
2023 04 27    09 45 38.5 +01 08 18   3.7415  4.2170   111.6    12.8  27.6
2023 04 28    09 45 43.6 +01 12 16   3.7589  4.2203   110.7    12.9  27.6
2023 04 29    09 45 49.6 +01 16 08   3.7763  4.2236   109.7    13.0  27.6
...
2023 05 05    09 46 44.1 +01 37 12   3.8828  4.2431   104.1    13.3  27.7
...
2023 05 13    09 48 42.8 +01 59 37   4.0281  4.2687    96.9    13.6  27.8
...
2023 05 28    09 54 32.2 +02 24 46   4.3038  4.3154    83.9    13.5  28.0

(MPEC 2023-H227、CBET 5250)

フラット表示 前のトピック | 次のトピック

題名 投稿者 日時
 » Comet P/2010 OE101 = 2021 LJ31 (WISE) 佐藤裕久 2023-5-2 12:17

投稿するにはまず登録を
 
© 1999 Tsutomu Seki.